Notices

Please take our survey and provide feedback: https://eccc.sondage-survey.ca/f/LanguageSelection.aspx?s=442ca660-fcf1-47c0-95a9-59707d6fd709

Please note that the IDF dataset is available through this link: Intensity-Duration-Frequency (IDF) Files .

Hourly Data Report for December 08, 2004

SHERBROOKE A
QUEBEC

45°26'00.000" N
71°41'00.000" W
241.40 m
7028124
71610
YSC

Download Data

Hourly Data (December 2004)
Hourly Data Report for December 8, 2004
TIME
LST
Temp Definition
°C
Dew Point Definition
°C
Rel Hum Definition
%
Precip. Amount Definition
mm

Wind Dir Definition
10's deg

Wind Spd Definition
km/h
Visibility Definition
km
Stn Press Definition
kPa
Hmdx Definition


Wind Chill Definition


Weather Definition


00:00 0.2 -3.8 74   13 32 15.0 97.65     Rain
01:00 0.6 -2.9 77   15 30 15.0 97.47     Freezing Drizzle
02:00 1.0 -2.4 78   15 20 15.0 97.43     Rain
03:00 1.2 -1.5 82   14 15 15.0 97.33      
04:00 1.5 -1.2 82   15 11 15.0 97.17      
05:00 1.6 -0.9 83   14 11 15.0 97.07      
06:00 1.4 -0.4 88   14 7 15.0 97.04     Rain
07:00 0.6 -0.4 93   25 4 9.7 97.12     Rain
08:00 0.7 -0.1 94     0 12.9 97.18     Rain
09:00 1.2 0.3 94   24 15 12.9 97.27     Rain
10:00 1.6 0.0 89   26 13 12.9 97.33     Rain
11:00 0.0 -0.7 95   27 22 2.8 97.38   -6 Snow
12:00 -0.2 -1.8 89   27 26 3.2 97.44   -6 Snow
13:00 -1.1 -3.2 86   27 35 3.2 97.54   -8 Snow
14:00 -1.9 -3.4 89   27 28 1.0 97.69   -9 Snow,Fog
15:00 -2.0 -4.2 85   27 32 1.0 97.85   -9 Snow,Fog
16:00 -2.2 -4.4 85   27 24 1.6 98.00   -9 Snow,Fog
17:00 -2.1 -5.5 77   28 33 16.1 98.20   -10 Cloudy
18:00 -2.3 -5.7 77   27 26 15.0 98.36   -9  
19:00 -2.7 -5.9 79   27 30 11.3 98.52   -10  
20:00 -3.0 -6.2 79   28 26 15.0 98.61   -10  
21:00 -3.1 -6.1 80   28 22 8.0 98.68   -9 Snow
22:00 -3.3 -7.0 76   29 17 15.0 98.75   -9  
23:00 -3.6 -6.4 81   28 19 3.4 98.87   -10 Snow

Notes on Data Quality.

Legend

  • E = Estimated
  • M = Missing
  • NA = Not Available*
  • [empty] = Indicates an unobserved value
Date modified: